User: anonymous   Login
Location: Grange Verzio
(44.5000°N, 6.9833°E)
Time: 20:56:34
(UTC+00:00)
Language:

TRANSIT 16 DEB - Orbit

View from above orbital plane
View from above orbital plane
View from above satellite
View from above satellite

Ground track
Ground track

The orbit data is extracted from the following two-line orbital elements,

1 38530U 67048H   24057.65642539  .00068349  00000-0  27254-1 0  9993
2 38530  89.6282  12.4449 0050350  34.4462  90.7237 14.27407865649760
Epoch (UTC): 26 February 2024 15:45:15
Eccentricity: 0.0050350
inclination: 89.6282°
perigee height: 764 km
apogee height: 836 km
right ascension of ascending node: 12.4449°
argument of perigee: 34.4462°
revolutions per day: 14.27407865
mean anomaly at epoch: 90.7237°
orbit number at epoch: 64976

The dashed part of the orbit path shows where the satellite is in the earth's shadow,  

DLR